Flag for Germany Weather past 2 weeks in Esslingen, Baden-Württemberg, Germany

Now
41 °F

Passing clouds.


Feels Like: 35 °F
Forecast: 35 / 43 °F
Wind: 10 mph from Southwest

Location: Stuttgart-Echterdingen

Current Time: Mar 3, 2015 at 10:28:37 AM

Latest Report: Mar 3, 2015 at 9:50 AM


Visibility: N/A

Pressure: 30.21 "Hg

Humidity: 66%

Dew point: 30 °F

Location of EsslingenLocation

Historic Weather in Esslingen — Graph

°F

Esslingen temperature yesterday

Maximum temperature yesterday: 48 °F (at 12:20 AM)
Minimum temperature yesterday: 37 °F (at 3:20 PM)
Average temperature yesterday: 42 °F

Past Weeks' High & Low Weather Summary

 TemperatureHumidityPressure
High55 °F (Feb 20, 2:20 PM)100% (Feb 16, 9:50 PM)30.69 "Hg (Feb 16, 9:50 PM)
Low23 °F (Feb 20, 4:20 AM)34% (Feb 26, 3:20 PM)29.50 "Hg (Feb 23, 3:20 PM)
Average37 °F82%30.00 "Hg
* Reported Feb 16 9:20 AM — Mar 3 9:20 AM, Esslingen, Weather by CustomWeather, © 2015

Note: Actual official high and low records may vary slightly from our data, if they occured in-between our weather recording intervals... More about our weather records

Advertising

Esslingen weather history for previous 24 hours

 ConditionsComfort  
Time TempWeatherWind HumidityBarometerVisibility
9:20 AM
Tue, Mar 3
39 °FPassing clouds.8 mph70%30.21 "HgN/A
8:50 AM37 °FPassing clouds.6 mph75%30.18 "HgN/A
8:20 AM36 °FPassing clouds.5 mph81%30.18 "HgN/A
7:50 AM36 °FSunny.7 mph81%30.18 "Hg10 mi
7:20 AM36 °FSunny.7 mph81%30.18 "Hg10 mi
6:50 AM36 °FClear.6 mph81%30.18 "Hg10 mi
6:20 AM36 °FChilly.7 mph81%30.18 "HgN/A
5:50 AM36 °FPassing clouds.6 mph81%30.18 "HgN/A
5:20 AM36 °FClear.6 mph81%30.18 "Hg10 mi
4:50 AM36 °FClear.6 mph81%30.15 "Hg10 mi
4:20 AM36 °FPassing clouds.6 mph81%30.15 "HgN/A
3:50 AM36 °FPassing clouds.7 mph81%30.15 "HgN/A
3:20 AM36 °FPassing clouds.6 mph81%30.15 "HgN/A
2:50 AM36 °FPassing clouds.6 mph81%30.15 "HgN/A
2:20 AM36 °FPassing clouds.5 mph81%30.15 "HgN/A
1:50 AM36 °FPassing clouds.6 mph81%30.15 "HgN/A
1:20 AM36 °FPassing clouds.6 mph81%30.15 "HgN/A
12:50 AM36 °FPassing clouds.7 mph81%30.12 "HgN/A
12:20 AM37 °FPassing clouds.6 mph75%30.12 "HgN/A
11:50 PM
Mon, Mar 2
37 °FPassing clouds.9 mph70%30.12 "HgN/A
11:20 PM37 °FPassing clouds.13 mph70%30.09 "HgN/A
10:50 PM37 °FPassing clouds.18 mph70%30.07 "HgN/A
10:20 PM37 °FPassing clouds.17 mph75%30.07 "HgN/A
9:50 PM37 °FPassing clouds.18 mph75%30.04 "HgN/A
9:20 PM37 °FPassing clouds.17 mph75%30.01 "HgN/A
8:50 PM37 °FPassing clouds.13 mph87%30.01 "HgN/A
8:20 PM39 °FPartly cloudy.12 mph81%29.98 "HgN/A
7:50 PM39 °FPartly cloudy.13 mph81%29.95 "HgN/A
7:20 PM39 °FPartly cloudy.13 mph81%29.95 "HgN/A
6:50 PM39 °FPassing clouds.18 mph81%29.92 "HgN/A
6:20 PM37 °FSleet. Passing clouds.21 mph93%29.89 "HgN/A
5:50 PM39 °FScattered clouds.7 mph93%29.86 "HgN/A
5:20 PM41 °FPassing clouds.8 mph87%29.86 "HgN/A
4:50 PM41 °FScattered showers. Scattered clouds.16 mph87%29.86 "HgN/A
4:20 PM39 °FSprinkles. Partly sunny.12 mph93%29.86 "HgN/A
3:50 PM39 °FSprinkles. Partly sunny.14 mph87%29.86 "HgN/A
3:20 PM37 °FRain showers. Broken clouds.24 mph87%29.83 "HgN/A
2:50 PM45 °FSprinkles. Partly sunny.14 mph76%29.83 "HgN/A
2:20 PM45 °FPartly sunny.15 mph71%29.80 "HgN/A
1:50 PM46 °FPartly sunny.18 mph66%29.80 "HgN/A
1:20 PM45 °FPartly sunny.13 mph71%29.80 "HgN/A
12:50 PM45 °FBroken clouds.20 mph66%29.80 "HgN/A
12:20 PM45 °FBroken clouds.12 mph76%29.77 "HgN/A
11:50 AM43 °FPartly sunny.18 mph81%29.77 "HgN/A
11:20 AM45 °FLight rain. Partly sunny.12 mph76%29.77 "HgN/A
10:50 AM43 °FPartly sunny.13 mph81%29.77 "HgN/A
10:20 AM43 °FLight rain. Scattered clouds.13 mph76%29.77 "HgN/A
Weather by CustomWeather, © 2015

See weather overviewHow to use our weather pages